Location: Days
(41.3591°N, 106.7339°W)
Time: 22:40:57
(UTC+00:00)

UWE-3 - Pass Details

Date: 08 July 2022
Orbit: 583 x 677 km, 97.7° (Epoch: 09 August)

Event Time Altitude Azimuth Distance (km) Brightness Sun altitude
Rises 09:30:42 0° 28° (NNE) 2,942 ? -18.6°
Reaches altitude 10° 09:33:25 10° 46° (NE) 2,046 ? -18.3°
Maximum altitude 09:36:42 20° 93° (E) 1,513 ? -17.9°
Drops below altitude 10° 09:40:00 10° 141° (SE) 2,073 ? -17.6°
Enters shadow 09:41:23 - 151° (SSE) 2,511 ? -17.4°
